Year,Month,Day,Hour,Minute,Value (Times are PST for temperature in C)
2014,04,25,00,00,6.80
2014,04,25,00,01,6.70
2014,04,25,00,02,6.70
2014,04,25,00,03,6.70
2014,04,25,00,04,6.70
2014,04,25,00,05,6.60
2014,04,25,00,06,6.60
2014,04,25,00,07,6.60
2014,04,25,00,08,6.50
2014,04,25,00,09,6.50
2014,04,25,00,10,6.50
2014,04,25,00,11,6.40
2014,04,25,00,12,6.40
2014,04,25,00,13,6.40
2014,04,25,00,14,6.30
2014,04,25,00,15,6.30
2014,04,25,00,16,6.30
2014,04,25,00,17,6.30
2014,04,25,00,18,6.30
2014,04,25,00,19,6.30
2014,04,25,00,20,6.30
2014,04,25,00,21,6.30
2014,04,25,00,22,6.30
2014,04,25,00,23,6.30
2014,04,25,00,24,6.20
2014,04,25,00,25,6.20
2014,04,25,00,26,6.20
2014,04,25,00,27,6.20
2014,04,25,00,28,6.20
2014,04,25,00,29,6.20
2014,04,25,00,30,6.20
2014,04,25,00,31,6.20
2014,04,25,00,32,6.20
2014,04,25,00,33,6.20
2014,04,25,00,34,6.20
2014,04,25,00,35,6.20
2014,04,25,00,36,6.20
2014,04,25,00,37,6.20
2014,04,25,00,38,6.20
2014,04,25,00,39,6.30
2014,04,25,00,40,6.30
2014,04,25,00,41,6.30
2014,04,25,00,42,6.30
2014,04,25,00,43,6.30
2014,04,25,00,44,6.30
2014,04,25,00,45,6.40
2014,04,25,00,46,6.40
2014,04,25,00,47,6.40
2014,04,25,00,48,6.40
2014,04,25,00,49,6.50
2014,04,25,00,50,6.50
2014,04,25,00,51,6.50
2014,04,25,00,52,6.60
2014,04,25,00,53,6.60
2014,04,25,00,54,6.60
2014,04,25,00,55,6.60
2014,04,25,00,56,6.60
2014,04,25,00,57,6.70
2014,04,25,00,58,6.70
2014,04,25,00,59,6.70
2014,04,25,01,00,6.70
2014,04,25,01,01,6.80
2014,04,25,01,02,6.80
2014,04,25,01,03,6.90
2014,04,25,01,04,6.90
2014,04,25,01,05,6.90
2014,04,25,01,06,6.90
2014,04,25,01,07,7.00
2014,04,25,01,08,7.00
2014,04,25,01,09,7.00
2014,04,25,01,10,7.00
2014,04,25,01,11,7.00
2014,04,25,01,12,7.00
2014,04,25,01,13,7.00
2014,04,25,01,14,7.10
2014,04,25,01,15,7.10
2014,04,25,01,16,7.10
2014,04,25,01,17,7.10
2014,04,25,01,18,7.20
2014,04,25,01,19,7.20
2014,04,25,01,20,7.20
2014,04,25,01,21,7.20
2014,04,25,01,22,7.20
2014,04,25,01,23,7.20
2014,04,25,01,24,7.20
2014,04,25,01,25,7.30
2014,04,25,01,26,7.30
2014,04,25,01,27,7.30
2014,04,25,01,28,7.30
2014,04,25,01,29,7.40
2014,04,25,01,30,7.40
2014,04,25,01,31,7.40
2014,04,25,01,32,7.40
2014,04,25,01,33,7.40
2014,04,25,01,34,7.40
2014,04,25,01,35,7.40
2014,04,25,01,36,7.40
2014,04,25,01,37,7.40
2014,04,25,01,38,7.40
2014,04,25,01,39,7.40
2014,04,25,01,40,7.40
2014,04,25,01,41,7.40
2014,04,25,01,42,7.40
2014,04,25,01,43,7.40
2014,04,25,01,44,7.40
2014,04,25,01,45,7.40
2014,04,25,01,46,7.40
2014,04,25,01,47,7.40
2014,04,25,01,48,7.40
2014,04,25,01,49,7.40
2014,04,25,01,50,7.40
2014,04,25,01,51,7.40
2014,04,25,01,52,7.40
2014,04,25,01,53,7.40
2014,04,25,01,54,7.30
2014,04,25,01,55,7.30
2014,04,25,01,56,7.30
2014,04,25,01,57,7.30
2014,04,25,01,58,7.30
2014,04,25,01,59,7.30
2014,04,25,02,00,7.30
2014,04,25,02,01,7.30
2014,04,25,02,02,7.30
2014,04,25,02,03,7.30
2014,04,25,02,04,7.30
2014,04,25,02,05,7.30
2014,04,25,02,06,7.30
2014,04,25,02,07,7.30
2014,04,25,02,08,7.30
2014,04,25,02,09,7.30
2014,04,25,02,10,7.30
2014,04,25,02,11,7.30
2014,04,25,02,12,7.30
2014,04,25,02,13,7.40
2014,04,25,02,14,7.40
2014,04,25,02,15,7.40
2014,04,25,02,16,7.40
2014,04,25,02,17,7.40
2014,04,25,02,18,7.40
2014,04,25,02,19,7.40
2014,04,25,02,20,7.40
2014,04,25,02,21,7.40
2014,04,25,02,22,7.40
2014,04,25,02,23,7.40
2014,04,25,02,24,7.30
2014,04,25,02,25,7.30
2014,04,25,02,26,7.30
2014,04,25,02,27,7.30
2014,04,25,02,28,7.20
2014,04,25,02,29,7.20
2014,04,25,02,30,7.20
2014,04,25,02,31,7.20
2014,04,25,02,32,7.10
2014,04,25,02,33,7.10
2014,04,25,02,34,7.10
2014,04,25,02,35,7.10
2014,04,25,02,36,7.10
2014,04,25,02,37,7.00
2014,04,25,02,38,7.00
2014,04,25,02,39,7.00
2014,04,25,02,40,6.90
2014,04,25,02,41,6.90
2014,04,25,02,42,6.90
2014,04,25,02,43,6.80
2014,04,25,02,44,6.80
2014,04,25,02,45,6.80
2014,04,25,02,46,6.80
2014,04,25,02,47,6.70
2014,04,25,02,48,6.70
2014,04,25,02,49,6.70
2014,04,25,02,50,6.70
2014,04,25,02,51,6.70
2014,04,25,02,52,6.70
2014,04,25,02,53,6.60
2014,04,25,02,54,6.60
2014,04,25,02,55,6.60
2014,04,25,02,56,6.60
2014,04,25,02,57,6.50
2014,04,25,02,58,6.50
2014,04,25,02,59,6.50
2014,04,25,03,00,6.40
2014,04,25,03,01,6.40
2014,04,25,03,02,6.40
2014,04,25,03,03,6.30
2014,04,25,03,04,6.30
2014,04,25,03,05,6.30
2014,04,25,03,06,6.30
2014,04,25,03,07,6.30
2014,04,25,03,08,6.20
2014,04,25,03,09,6.20
2014,04,25,03,10,6.20
2014,04,25,03,11,6.20
2014,04,25,03,12,6.10
2014,04,25,03,13,6.10
2014,04,25,03,14,6.10
2014,04,25,03,15,6.10
2014,04,25,03,16,6.00
2014,04,25,03,17,6.00
2014,04,25,03,18,6.00
2014,04,25,03,19,5.90
2014,04,25,03,20,5.90
2014,04,25,03,21,5.90
2014,04,25,03,22,5.80
2014,04,25,03,23,5.80
2014,04,25,03,24,5.80
2014,04,25,03,25,5.80
2014,04,25,03,26,5.70
2014,04,25,03,27,5.70
2014,04,25,03,28,5.70
2014,04,25,03,29,5.60
2014,04,25,03,30,5.60
2014,04,25,03,31,5.60
2014,04,25,03,32,5.50
2014,04,25,03,33,5.50
2014,04,25,03,34,5.50
2014,04,25,03,35,5.50
2014,04,25,03,36,5.40
2014,04,25,03,37,5.40
2014,04,25,03,38,5.40
2014,04,25,03,39,5.30
2014,04,25,03,40,5.30
2014,04,25,03,41,5.30
2014,04,25,03,42,5.30
2014,04,25,03,43,5.30
2014,04,25,03,44,5.20
2014,04,25,03,45,5.20
2014,04,25,03,46,5.20
2014,04,25,03,47,5.20
2014,04,25,03,48,5.10
2014,04,25,03,49,5.10
2014,04,25,03,50,5.10
2014,04,25,03,51,5.10
2014,04,25,03,52,5.00
2014,04,25,03,53,5.00
2014,04,25,03,54,4.90
2014,04,25,03,55,4.90
2014,04,25,03,56,4.90
2014,04,25,03,57,4.90
2014,04,25,03,58,4.80
2014,04,25,03,59,4.80
2014,04,25,04,00,4.80
2014,04,25,04,01,4.70
2014,04,25,04,02,4.70
2014,04,25,04,03,4.70
2014,04,25,04,04,4.60
2014,04,25,04,05,4.60
2014,04,25,04,06,4.60
2014,04,25,04,07,4.60
2014,04,25,04,08,4.50
2014,04,25,04,09,4.50
2014,04,25,04,10,4.40
2014,04,25,04,11,4.40
2014,04,25,04,12,4.40
2014,04,25,04,13,4.40
2014,04,25,04,14,4.40
2014,04,25,04,15,4.30
2014,04,25,04,16,4.30
2014,04,25,04,17,4.30
2014,04,25,04,18,4.30
2014,04,25,04,19,4.30
2014,04,25,04,20,4.30
2014,04,25,04,21,4.30
2014,04,25,04,22,4.20
2014,04,25,04,23,4.20
2014,04,25,04,24,4.20
2014,04,25,04,25,4.20
2014,04,25,04,26,4.20
2014,04,25,04,27,4.20
2014,04,25,04,28,4.20
2014,04,25,04,29,4.10
2014,04,25,04,30,4.10
2014,04,25,04,31,4.10
2014,04,25,04,32,4.10
2014,04,25,04,33,4.10
2014,04,25,04,34,4.10
2014,04,25,04,35,4.10
2014,04,25,04,36,4.10
2014,04,25,04,37,4.00
2014,04,25,04,38,4.00
2014,04,25,04,39,4.00
2014,04,25,04,40,4.00
2014,04,25,04,41,4.00
2014,04,25,04,42,3.90
2014,04,25,04,43,3.90
2014,04,25,04,44,3.90
2014,04,25,04,45,3.80
2014,04,25,04,46,3.80
2014,04,25,04,47,3.80
2014,04,25,04,48,3.80
2014,04,25,04,49,3.80
2014,04,25,04,50,3.80
2014,04,25,04,51,3.80
2014,04,25,04,52,3.70
2014,04,25,04,53,3.70
2014,04,25,04,54,3.70
2014,04,25,04,55,3.70
2014,04,25,04,56,3.70
2014,04,25,04,57,3.70
2014,04,25,04,58,3.70
2014,04,25,04,59,3.60
2014,04,25,05,00,3.60
2014,04,25,05,01,3.60
2014,04,25,05,02,3.60
2014,04,25,05,03,3.50
2014,04,25,05,04,3.50
2014,04,25,05,05,3.50
2014,04,25,05,06,3.50
2014,04,25,05,07,3.40
2014,04,25,05,08,3.40
2014,04,25,05,09,3.40
2014,04,25,05,10,3.40
2014,04,25,05,11,3.40
2014,04,25,05,12,3.30
2014,04,25,05,13,3.30
2014,04,25,05,14,3.30
2014,04,25,05,15,3.30
2014,04,25,05,16,3.30
2014,04,25,05,17,3.30
2014,04,25,05,18,3.30
2014,04,25,05,19,3.20
2014,04,25,05,20,3.20
2014,04,25,05,21,3.20
2014,04,25,05,22,3.20
2014,04,25,05,23,3.20
2014,04,25,05,24,3.20
2014,04,25,05,25,3.10
2014,04,25,05,26,3.10
2014,04,25,05,27,3.10
2014,04,25,05,28,3.10
2014,04,25,05,29,3.10
2014,04,25,05,30,3.10
2014,04,25,05,31,3.10
2014,04,25,05,32,3.10
2014,04,25,05,33,3.00
2014,04,25,05,34,3.00
2014,04,25,05,35,3.00
2014,04,25,05,36,3.00
2014,04,25,05,37,3.00
2014,04,25,05,38,3.00
2014,04,25,05,39,3.00
2014,04,25,05,40,3.00
2014,04,25,05,41,3.00
2014,04,25,05,42,3.00
2014,04,25,05,43,3.00
2014,04,25,05,44,3.00
2014,04,25,05,45,3.00
2014,04,25,05,46,3.00
2014,04,25,05,47,3.00
2014,04,25,05,48,3.00
2014,04,25,05,49,3.00
2014,04,25,05,50,3.00
2014,04,25,05,51,3.10
2014,04,25,05,52,3.10
2014,04,25,05,53,3.10
2014,04,25,05,54,3.10
2014,04,25,05,55,3.10
2014,04,25,05,56,3.10
2014,04,25,05,57,3.10
2014,04,25,05,58,3.10
2014,04,25,05,59,3.10
2014,04,25,06,00,3.10
2014,04,25,06,01,3.10
2014,04,25,06,02,3.10
2014,04,25,06,03,3.10
2014,04,25,06,04,3.10
2014,04,25,06,05,3.00
2014,04,25,06,06,3.00
2014,04,25,06,07,3.00
2014,04,25,06,08,3.00
2014,04,25,06,09,3.00
2014,04,25,06,10,3.00
2014,04,25,06,11,3.00
2014,04,25,06,12,3.00
2014,04,25,06,13,3.00
2014,04,25,06,14,3.00
2014,04,25,06,15,3.00
2014,04,25,06,16,3.00
2014,04,25,06,17,3.00
2014,04,25,06,18,3.00
2014,04,25,06,19,3.00
2014,04,25,06,20,3.00
2014,04,25,06,21,3.00
2014,04,25,06,22,3.00
2014,04,25,06,23,3.00
2014,04,25,06,24,3.00
2014,04,25,06,25,3.00
2014,04,25,06,26,3.10
2014,04,25,06,27,3.10
2014,04,25,06,28,3.10
2014,04,25,06,29,3.10
2014,04,25,06,30,3.10
2014,04,25,06,31,3.10
2014,04,25,06,32,3.10
2014,04,25,06,33,3.10
2014,04,25,06,34,3.10
2014,04,25,06,35,3.10
2014,04,25,06,36,3.10
2014,04,25,06,37,3.10
2014,04,25,06,38,3.10
2014,04,25,06,39,3.10
2014,04,25,06,40,3.10
2014,04,25,06,41,3.10
2014,04,25,06,42,3.10
2014,04,25,06,43,3.10
2014,04,25,06,44,3.10
2014,04,25,06,45,3.10
2014,04,25,06,46,3.10
2014,04,25,06,47,3.10
2014,04,25,06,48,3.10
2014,04,25,06,49,3.10
2014,04,25,06,50,3.10
2014,04,25,06,51,3.10
2014,04,25,06,52,3.10
2014,04,25,06,53,3.10
2014,04,25,06,54,3.10
2014,04,25,06,55,3.10
2014,04,25,06,56,3.10
2014,04,25,06,57,3.20
2014,04,25,06,58,3.20
2014,04,25,06,59,3.20
2014,04,25,07,00,3.20
2014,04,25,07,01,3.20
2014,04,25,07,02,3.20
2014,04,25,07,03,3.20
2014,04,25,07,04,3.20
2014,04,25,07,05,3.20
2014,04,25,07,06,3.20
2014,04,25,07,07,3.20
2014,04,25,07,08,3.20
2014,04,25,07,09,3.20
2014,04,25,07,10,3.20
2014,04,25,07,11,3.20
2014,04,25,07,12,3.20
2014,04,25,07,13,3.20
2014,04,25,07,14,3.30
2014,04,25,07,15,3.30
2014,04,25,07,16,3.30
2014,04,25,07,17,3.30
2014,04,25,07,18,3.40
2014,04,25,07,19,3.40
2014,04,25,07,20,3.40
2014,04,25,07,21,3.40
2014,04,25,07,22,3.40
2014,04,25,07,23,3.50
2014,04,25,07,24,3.50
2014,04,25,07,25,3.50
2014,04,25,07,26,3.60
2014,04,25,07,27,3.60
2014,04,25,07,28,3.60
2014,04,25,07,29,3.70
2014,04,25,07,30,3.70
2014,04,25,07,31,3.70
2014,04,25,07,32,3.80
2014,04,25,07,33,3.90
2014,04,25,07,34,3.90
2014,04,25,07,35,3.90
2014,04,25,07,36,4.00
2014,04,25,07,37,4.00
2014,04,25,07,38,4.00
2014,04,25,07,39,4.10
2014,04,25,07,40,4.10
2014,04,25,07,41,4.10
2014,04,25,07,42,4.10
2014,04,25,07,43,4.20
2014,04,25,07,44,4.20
2014,04,25,07,45,4.30
2014,04,25,07,46,4.30
2014,04,25,07,47,4.30
2014,04,25,07,48,4.40
2014,04,25,07,49,4.50
2014,04,25,07,50,4.50
2014,04,25,07,51,4.50
2014,04,25,07,52,4.60
2014,04,25,07,53,4.60
2014,04,25,07,54,4.70
2014,04,25,07,55,4.70
2014,04,25,07,56,4.70
2014,04,25,07,57,4.70
2014,04,25,07,58,4.80
2014,04,25,07,59,4.80
2014,04,25,08,00,4.80
2014,04,25,08,01,4.80
2014,04,25,08,02,4.90
2014,04,25,08,03,4.90
2014,04,25,08,04,4.90
2014,04,25,08,05,4.90
2014,04,25,08,06,5.00
2014,04,25,08,07,5.00
2014,04,25,08,08,5.10
2014,04,25,08,09,5.10
2014,04,25,08,10,5.20
2014,04,25,08,11,5.20
2014,04,25,08,12,5.20
2014,04,25,08,13,5.20
2014,04,25,08,14,5.30
2014,04,25,08,15,5.30
2014,04,25,08,16,5.30
2014,04,25,08,17,5.40
2014,04,25,08,18,5.40
2014,04,25,08,19,5.50
2014,04,25,08,20,5.50
2014,04,25,08,21,5.60
2014,04,25,08,22,5.70
2014,04,25,08,23,5.70
2014,04,25,08,24,5.70
2014,04,25,08,25,5.80
2014,04,25,08,26,5.90
2014,04,25,08,27,5.90
2014,04,25,08,28,6.00
2014,04,25,08,29,6.00
2014,04,25,08,30,6.10
2014,04,25,08,31,6.10
2014,04,25,08,32,6.10
2014,04,25,08,33,6.20
2014,04,25,08,34,6.20
2014,04,25,08,35,6.20
2014,04,25,08,36,6.30
2014,04,25,08,37,6.30
2014,04,25,08,38,6.30
2014,04,25,08,39,6.30
2014,04,25,08,40,6.30
2014,04,25,08,41,6.30
2014,04,25,08,42,6.30
2014,04,25,08,43,6.30
2014,04,25,08,44,6.30
2014,04,25,08,45,6.40
2014,04,25,08,46,6.40
2014,04,25,08,47,6.40
2014,04,25,08,48,6.40
2014,04,25,08,49,6.40
2014,04,25,08,50,6.40
2014,04,25,08,51,6.40
2014,04,25,08,52,6.40
2014,04,25,08,53,6.40
2014,04,25,08,54,6.50
2014,04,25,08,55,6.50
2014,04,25,08,56,6.50
2014,04,25,08,57,6.50
2014,04,25,08,58,6.50
2014,04,25,08,59,6.50
2014,04,25,09,00,6.50
2014,04,25,09,01,6.60
2014,04,25,09,02,6.60
2014,04,25,09,03,6.60
2014,04,25,09,04,6.60
2014,04,25,09,05,6.60
2014,04,25,09,06,6.70
2014,04,25,09,07,6.70
2014,04,25,09,08,6.70
2014,04,25,09,09,6.70
2014,04,25,09,10,6.80
2014,04,25,09,11,6.80
2014,04,25,09,12,6.90
2014,04,25,09,13,6.90
2014,04,25,09,14,7.00
2014,04,25,09,15,7.10
2014,04,25,09,16,7.10
2014,04,25,09,17,7.10
2014,04,25,09,18,7.20
2014,04,25,09,19,7.20
2014,04,25,09,20,7.20
2014,04,25,09,21,7.30
2014,04,25,09,22,7.30
2014,04,25,09,23,7.40
2014,04,25,09,24,7.50
2014,04,25,09,25,7.60
2014,04,25,09,26,7.70
2014,04,25,09,27,7.80
2014,04,25,09,28,7.90
2014,04,25,09,29,8.00
2014,04,25,09,30,8.20
2014,04,25,09,31,8.30
2014,04,25,09,32,8.40
2014,04,25,09,33,8.50
2014,04,25,09,34,8.60
2014,04,25,09,35,8.70
2014,04,25,09,36,8.80
2014,04,25,09,37,8.90
2014,04,25,09,38,9.00
2014,04,25,09,39,9.10
2014,04,25,09,40,9.20
2014,04,25,09,41,9.30
2014,04,25,09,42,9.30
2014,04,25,09,43,9.40
2014,04,25,09,44,9.40
2014,04,25,09,45,9.40
2014,04,25,09,46,9.50
2014,04,25,09,47,9.50
2014,04,25,09,48,9.50
2014,04,25,09,49,9.60
2014,04,25,09,50,9.70
2014,04,25,09,51,9.70
2014,04,25,09,52,9.80
2014,04,25,09,53,9.90
2014,04,25,09,54,10.00
2014,04,25,09,55,10.10
2014,04,25,09,56,10.20
2014,04,25,09,57,10.20
2014,04,25,09,58,10.30
2014,04,25,09,59,10.40
2014,04,25,10,00,10.50
2014,04,25,10,01,10.50
2014,04,25,10,02,10.60
2014,04,25,10,03,10.70
2014,04,25,10,04,10.80
2014,04,25,10,05,10.80
2014,04,25,10,06,10.90
2014,04,25,10,07,11.00
2014,04,25,10,08,11.00
2014,04,25,10,09,11.00
2014,04,25,10,10,11.00
2014,04,25,10,11,11.00
2014,04,25,10,12,11.00
2014,04,25,10,13,11.00
2014,04,25,10,14,11.00
2014,04,25,10,15,10.90
2014,04,25,10,16,10.90
2014,04,25,10,17,10.80
2014,04,25,10,18,10.80
2014,04,25,10,19,10.80
2014,04,25,10,20,10.80
2014,04,25,10,21,10.80
2014,04,25,10,22,10.80
2014,04,25,10,23,10.90
2014,04,25,10,24,10.90
2014,04,25,10,25,10.90
2014,04,25,10,26,10.80
2014,04,25,10,27,10.80
2014,04,25,10,28,10.70
2014,04,25,10,29,10.70
2014,04,25,10,30,10.70
2014,04,25,10,31,10.70
2014,04,25,10,32,10.70
2014,04,25,10,33,10.70
2014,04,25,10,34,10.70
2014,04,25,10,35,10.60
2014,04,25,10,36,10.60
2014,04,25,10,37,10.60
2014,04,25,10,38,10.60
2014,04,25,10,39,10.60
2014,04,25,10,40,10.70
2014,04,25,10,41,10.80
2014,04,25,10,42,10.90
2014,04,25,10,43,10.90
2014,04,25,10,44,10.90
2014,04,25,10,45,10.80
2014,04,25,10,46,10.70
2014,04,25,10,47,10.70
2014,04,25,10,48,10.60
2014,04,25,10,49,10.60
2014,04,25,10,50,10.60
2014,04,25,10,51,10.70
2014,04,25,10,52,10.70
2014,04,25,10,53,10.80
2014,04,25,10,54,10.80
2014,04,25,10,55,10.90
2014,04,25,10,56,11.00
2014,04,25,10,57,11.00
2014,04,25,10,58,11.00
2014,04,25,10,59,11.00
2014,04,25,11,00,10.90
2014,04,25,11,01,10.90
2014,04,25,11,02,10.90
2014,04,25,11,03,10.90
2014,04,25,11,04,10.90
2014,04,25,11,05,10.90
2014,04,25,11,06,10.90
2014,04,25,11,07,10.80
2014,04,25,11,08,10.80
2014,04,25,11,09,10.90
2014,04,25,11,10,10.90
2014,04,25,11,11,10.90
2014,04,25,11,12,11.00
2014,04,25,11,13,11.00
2014,04,25,11,14,11.10
2014,04,25,11,15,11.10
2014,04,25,11,16,11.10
2014,04,25,11,17,11.10
2014,04,25,11,18,11.20
2014,04,25,11,19,11.20
2014,04,25,11,20,11.20
2014,04,25,11,21,11.20
2014,04,25,11,22,11.30
2014,04,25,11,23,11.40
2014,04,25,11,24,11.50
2014,04,25,11,25,11.60
2014,04,25,11,26,11.60
2014,04,25,11,27,11.70
2014,04,25,11,28,11.80
2014,04,25,11,29,11.80
2014,04,25,11,30,11.80
2014,04,25,11,31,11.80
2014,04,25,11,32,11.80
2014,04,25,11,33,11.80
2014,04,25,11,34,11.80
2014,04,25,11,35,11.80
2014,04,25,11,36,11.80
2014,04,25,11,37,11.80
2014,04,25,11,38,11.80
2014,04,25,11,39,11.90
2014,04,25,11,40,11.90
2014,04,25,11,41,12.00
2014,04,25,11,42,12.10
2014,04,25,11,43,12.20
2014,04,25,11,44,12.20
2014,04,25,11,45,12.30
2014,04,25,11,46,12.30
2014,04,25,11,47,12.30
2014,04,25,11,48,12.30
2014,04,25,11,49,12.20
2014,04,25,11,50,12.20
2014,04,25,11,51,12.30
2014,04,25,11,52,12.30
2014,04,25,11,53,12.40
2014,04,25,11,54,12.40
2014,04,25,11,55,12.50
2014,04,25,11,56,12.60
2014,04,25,11,57,12.60
2014,04,25,11,58,12.70
2014,04,25,11,59,12.70
2014,04,25,12,00,12.60
2014,04,25,12,01,12.50
2014,04,25,12,02,12.50
2014,04,25,12,03,12.50
2014,04,25,12,04,12.60
2014,04,25,12,05,12.60
2014,04,25,12,06,12.60
2014,04,25,12,07,12.60
2014,04,25,12,08,12.60
2014,04,25,12,09,12.60
2014,04,25,12,10,12.60
2014,04,25,12,11,12.60
2014,04,25,12,12,12.50
2014,04,25,12,13,12.50
2014,04,25,12,14,12.50
2014,04,25,12,15,12.50
2014,04,25,12,16,12.60
2014,04,25,12,17,12.70
2014,04,25,12,18,12.70
2014,04,25,12,19,12.70
2014,04,25,12,20,12.70
2014,04,25,12,21,12.70
2014,04,25,12,22,12.80
2014,04,25,12,23,12.80
2014,04,25,12,24,12.80
2014,04,25,12,25,12.90
2014,04,25,12,26,13.00
2014,04,25,12,27,13.00
2014,04,25,12,28,13.10
2014,04,25,12,29,13.10
2014,04,25,12,30,13.20
2014,04,25,12,31,13.20
2014,04,25,12,32,13.20
2014,04,25,12,33,13.30
2014,04,25,12,34,13.30
2014,04,25,12,35,13.30
2014,04,25,12,36,13.40
2014,04,25,12,37,13.40
2014,04,25,12,38,13.40
2014,04,25,12,39,13.40
2014,04,25,12,40,13.40
2014,04,25,12,41,13.30
2014,04,25,12,42,13.20
2014,04,25,12,43,13.10
2014,04,25,12,44,13.00
2014,04,25,12,45,12.90
2014,04,25,12,46,12.90
2014,04,25,12,47,12.90
2014,04,25,12,48,12.80
2014,04,25,12,49,12.70
2014,04,25,12,50,12.70
2014,04,25,12,51,12.60
2014,04,25,12,52,12.60
2014,04,25,12,53,12.60
2014,04,25,12,54,12.60
2014,04,25,12,55,12.60
2014,04,25,12,56,12.50
2014,04,25,12,57,12.50
2014,04,25,12,58,12.50
2014,04,25,12,59,12.50
2014,04,25,13,00,12.50
2014,04,25,13,01,12.40
2014,04,25,13,02,12.40
2014,04,25,13,03,12.30
2014,04,25,13,04,12.30
2014,04,25,13,05,12.30
2014,04,25,13,06,12.30
2014,04,25,13,07,12.30
2014,04,25,13,08,12.30
2014,04,25,13,09,12.30
2014,04,25,13,10,12.40
2014,04,25,13,11,12.30
2014,04,25,13,12,12.30
2014,04,25,13,13,12.30
2014,04,25,13,14,12.30
2014,04,25,13,15,12.30
2014,04,25,13,16,12.20
2014,04,25,13,17,12.20
2014,04,25,13,18,12.20
2014,04,25,13,19,12.20
2014,04,25,13,20,12.20
2014,04,25,13,21,12.30
2014,04,25,13,22,12.30
2014,04,25,13,23,12.40
2014,04,25,13,24,12.50
2014,04,25,13,25,12.60
2014,04,25,13,26,12.60
2014,04,25,13,27,12.50
2014,04,25,13,28,12.40
2014,04,25,13,29,12.30
2014,04,25,13,30,12.30
2014,04,25,13,31,12.30
2014,04,25,13,32,12.30
2014,04,25,13,33,12.40
2014,04,25,13,34,12.40
2014,04,25,13,35,12.40
2014,04,25,13,36,12.50
2014,04,25,13,37,12.50
2014,04,25,13,38,12.60
2014,04,25,13,39,12.60
2014,04,25,13,40,12.60
2014,04,25,13,41,12.60
2014,04,25,13,42,12.60
2014,04,25,13,43,12.60
2014,04,25,13,44,12.70
2014,04,25,13,45,12.70
2014,04,25,13,46,12.70
2014,04,25,13,47,12.80
2014,04,25,13,48,12.80
2014,04,25,13,49,12.80
2014,04,25,13,50,12.80
2014,04,25,13,51,12.70
2014,04,25,13,52,12.70
2014,04,25,13,53,12.60
2014,04,25,13,54,12.60
2014,04,25,13,55,12.50
2014,04,25,13,56,12.50
2014,04,25,13,57,12.40
2014,04,25,13,58,12.40
2014,04,25,13,59,12.40
2014,04,25,14,00,12.30
2014,04,25,14,01,12.30
2014,04,25,14,02,12.30
2014,04,25,14,03,12.30
2014,04,25,14,04,12.30
2014,04,25,14,05,12.30
2014,04,25,14,06,12.30
2014,04,25,14,07,12.30
2014,04,25,14,08,12.40
2014,04,25,14,09,12.40
2014,04,25,14,10,12.40
2014,04,25,14,11,12.50
2014,04,25,14,12,12.50
2014,04,25,14,13,12.60
2014,04,25,14,14,12.70
2014,04,25,14,15,12.70
2014,04,25,14,16,12.80
2014,04,25,14,17,12.80
2014,04,25,14,18,12.80
2014,04,25,14,19,12.80
2014,04,25,14,20,12.90
2014,04,25,14,21,12.90
2014,04,25,14,22,12.90
2014,04,25,14,23,12.90
2014,04,25,14,24,13.00
2014,04,25,14,25,12.90
2014,04,25,14,26,12.90
2014,04,25,14,27,12.90
2014,04,25,14,28,12.90
2014,04,25,14,29,12.80
2014,04,25,14,30,12.80
2014,04,25,14,31,12.90
2014,04,25,14,32,12.90
2014,04,25,14,33,12.90
2014,04,25,14,34,13.00
2014,04,25,14,35,13.00
2014,04,25,14,36,13.10
2014,04,25,14,37,13.10
2014,04,25,14,38,13.20
2014,04,25,14,39,13.20
2014,04,25,14,40,13.20
2014,04,25,14,41,13.30
2014,04,25,14,42,13.40
2014,04,25,14,43,13.40
2014,04,25,14,44,13.50
2014,04,25,14,45,13.50
2014,04,25,14,46,13.50
2014,04,25,14,47,13.50
2014,04,25,14,48,13.60
2014,04,25,14,49,13.60
2014,04,25,14,50,13.60
2014,04,25,14,51,13.70
2014,04,25,14,52,13.70
2014,04,25,14,53,13.80
2014,04,25,14,54,13.80
2014,04,25,14,55,13.70
2014,04,25,14,56,13.60
2014,04,25,14,57,13.40
2014,04,25,14,58,13.30
2014,04,25,14,59,13.20
2014,04,25,15,00,13.10
2014,04,25,15,01,13.10
2014,04,25,15,02,13.10
2014,04,25,15,03,13.10
2014,04,25,15,04,13.10
2014,04,25,15,05,13.10
2014,04,25,15,06,13.20
2014,04,25,15,07,13.20
2014,04,25,15,08,13.30
2014,04,25,15,09,13.30
2014,04,25,15,10,13.40
2014,04,25,15,11,13.40
2014,04,25,15,12,13.40
2014,04,25,15,13,13.40
2014,04,25,15,14,13.50
2014,04,25,15,15,13.50
2014,04,25,15,16,13.60
2014,04,25,15,17,13.60
2014,04,25,15,18,13.60
2014,04,25,15,19,13.60
2014,04,25,15,20,13.60
2014,04,25,15,21,13.60
2014,04,25,15,22,13.60
2014,04,25,15,23,13.60
2014,04,25,15,24,13.60
2014,04,25,15,25,13.60
2014,04,25,15,26,13.60
2014,04,25,15,27,13.60
2014,04,25,15,28,13.60
2014,04,25,15,29,13.60
2014,04,25,15,30,13.60
2014,04,25,15,31,13.60
2014,04,25,15,32,13.60
2014,04,25,15,33,13.50
2014,04,25,15,34,13.60
2014,04,25,15,35,13.50
2014,04,25,15,36,13.50
2014,04,25,15,37,13.60
2014,04,25,15,38,13.70
2014,04,25,15,39,13.70
2014,04,25,15,40,13.80
2014,04,25,15,41,13.80
2014,04,25,15,42,13.80
2014,04,25,15,43,13.80
2014,04,25,15,44,13.80
2014,04,25,15,45,13.80
2014,04,25,15,46,13.80
2014,04,25,15,47,13.80
2014,04,25,15,48,13.80
2014,04,25,15,49,13.70
2014,04,25,15,50,13.70
2014,04,25,15,51,13.70
2014,04,25,15,52,13.70
2014,04,25,15,53,13.70
2014,04,25,15,54,13.80
2014,04,25,15,55,13.90
2014,04,25,15,56,14.00
2014,04,25,15,57,14.00
2014,04,25,15,58,14.00
2014,04,25,15,59,14.10
2014,04,25,16,00,14.10
2014,04,25,16,01,14.10
2014,04,25,16,02,14.00
2014,04,25,16,03,14.00
2014,04,25,16,04,14.00
2014,04,25,16,05,13.90
2014,04,25,16,06,13.90
2014,04,25,16,07,13.90
2014,04,25,16,08,13.90
2014,04,25,16,09,13.90
2014,04,25,16,10,14.00
2014,04,25,16,11,14.00
2014,04,25,16,12,14.00
2014,04,25,16,13,14.10
2014,04,25,16,14,14.00
2014,04,25,16,15,14.00
2014,04,25,16,16,14.00
2014,04,25,16,17,14.00
2014,04,25,16,18,14.00
2014,04,25,16,19,13.90
2014,04,25,16,20,13.90
2014,04,25,16,21,13.90
2014,04,25,16,22,13.90
2014,04,25,16,23,13.90
2014,04,25,16,24,13.90
2014,04,25,16,25,13.90
2014,04,25,16,26,14.00
2014,04,25,16,27,14.00
2014,04,25,16,28,14.00
2014,04,25,16,29,13.90
2014,04,25,16,30,13.90
2014,04,25,16,31,13.90
2014,04,25,16,32,13.90
2014,04,25,16,33,13.80
2014,04,25,16,34,13.80
2014,04,25,16,35,13.70
2014,04,25,16,36,13.70
2014,04,25,16,37,13.70
2014,04,25,16,38,13.70
2014,04,25,16,39,13.70
2014,04,25,16,40,13.60
2014,04,25,16,41,13.60
2014,04,25,16,42,13.60
2014,04,25,16,43,13.60
2014,04,25,16,44,13.70
2014,04,25,16,45,13.70
2014,04,25,16,46,13.60
2014,04,25,16,47,13.60
2014,04,25,16,48,13.50
2014,04,25,16,49,13.50
2014,04,25,16,50,13.40
2014,04,25,16,51,13.30
2014,04,25,16,52,13.20
2014,04,25,16,53,13.10
2014,04,25,16,54,13.10
2014,04,25,16,55,13.10
2014,04,25,16,56,13.10
2014,04,25,16,57,13.10
2014,04,25,16,58,13.10
2014,04,25,16,59,13.20
2014,04,25,17,00,13.30
2014,04,25,17,01,13.30
2014,04,25,17,02,13.40
2014,04,25,17,03,13.50
2014,04,25,17,04,13.50
2014,04,25,17,05,13.60
2014,04,25,17,06,13.50
2014,04,25,17,07,13.50
2014,04,25,17,08,13.40
2014,04,25,17,09,13.40
2014,04,25,17,10,13.30
2014,04,25,17,11,13.40
2014,04,25,17,12,13.40
2014,04,25,17,13,13.50
2014,04,25,17,14,13.60
2014,04,25,17,15,13.60
2014,04,25,17,16,13.70
2014,04,25,17,17,13.70
2014,04,25,17,18,13.80
2014,04,25,17,19,13.70
2014,04,25,17,20,13.70
2014,04,25,17,21,13.70
2014,04,25,17,22,13.70
2014,04,25,17,23,13.60
2014,04,25,17,24,13.50
2014,04,25,17,25,13.50
2014,04,25,17,26,13.30
2014,04,25,17,27,13.30
2014,04,25,17,28,13.30
2014,04,25,17,29,13.30
2014,04,25,17,30,13.30
2014,04,25,17,31,13.40
2014,04,25,17,32,13.40
2014,04,25,17,33,13.40
2014,04,25,17,34,13.50
2014,04,25,17,35,13.60
2014,04,25,17,36,13.60
2014,04,25,17,37,13.60
2014,04,25,17,38,13.60
2014,04,25,17,39,13.60
2014,04,25,17,40,13.60
2014,04,25,17,41,13.60
2014,04,25,17,42,13.60
2014,04,25,17,43,13.60
2014,04,25,17,44,13.60
2014,04,25,17,45,13.50